Weather Roundup
Issued by NWS Chicago, IL

Home | Current Version | Previous Version | Text Only | Print | Product List | Glossary Off
Versions: 1 2 3 4 5 6 7 8 9 10 11 12 13 14 15 16 17 18 19 20 21 22 23 24 25 26 27 28 29 30 31 32 33 34 35 36 37 38 39 40 41 42 43 44 45 46 47 48 49 50

816
NZUS59 KLOT 241203
HRRLOT

CHICAGO AREA WEATHER ROUNDUP
NATIONAL WEATHER SERVICE CHICAGO/ROMEOVILLE IL
700 AM CDT SUN JUL 24 2016

NOTE: "FAIR" INDICATES FEW OR NO CLOUDS BELOW 12,000 FEET WITH NO
SIGNIFICANT WEATHER AND/OR OBSTRUCTIONS TO VISIBILITY.

* THESE STATIONS ARE NOT UNDER NWS QUALITY CONTROL. THEY ALSO MAY NOT
  REPORT WEATHER SUCH AS PRECIPITATION OR FOG.

ILZ005-006-012>014-019>023-241300-
NORTHEAST ILLINOIS

CITY           SKY/WX    TMP DP  RH WIND       PRES   REMARKS
OHARE          MOSUNNY   73  70  90 S12       29.91R
6HR MIN TEMP:  71; 6HR MAX TEMP:  73; 6HR PCP:  0.01;

MIDWAY         PTSUNNY   74  69  85 S8        29.91S
6HR MIN TEMP:  73; 6HR MAX TEMP:  74; 6HR PCP:  0.03;

AURORA         SUNNY     74  71  91 S10       29.91S
6HR MIN TEMP:  71; 6HR MAX TEMP:  74;

LANSING*       SUNNY     72  68  89 S8        29.94S
WAUKEGAN       CLOUDY    74  71  91 S13       29.89R
6HR MIN TEMP:  71; 6HR MAX TEMP:  74;

DUPAGE AIRPORT SUNNY     73  70  90 S10       29.91R
6HR MIN TEMP:  71; 6HR MAX TEMP:  73;

WHEELING       SUNNY     73  70  90 S13       29.91R
6HR MIN TEMP:  71; 6HR MAX TEMP:  73; 6HR PCP: TRACE;

MORRIS*        SUNNY     73  71  95 S5        29.91S
NORTHERLY ISL    N/A     74  69  85 S7          N/A
$$

WIZ051-052-058>065-066-070>072-241300-
SOUTHEAST WISCONSIN

CITY           SKY/WX    TMP DP  RH WIND       PRES   REMARKS
MILWAUKEE      CLOUDY    75  71  87 S6        29.88R
6HR MIN TEMP:  73; 6HR MAX TEMP:  75; 6HR PCP:  0.03;

KENOSHA*       CLOUDY    75  71  87 SW7       29.89R
RACINE*        CLOUDY    74  70  87 S6        29.90R
BURLINGTON     CLOUDY    73  72  95 S9        29.88R
WAUKESHA       SUNNY     70  68  94 S6        29.89R
$$

INZ001>003-010>013-019-020-241300-
NORTHWEST INDIANA

CITY           SKY/WX    TMP DP  RH WIND       PRES   REMARKS
GARY*          PTSUNNY   72 N/A N/A S7        29.94R
MICHIGAN CITY* NOT AVBL
RENSSELAER*    NOT AVBL
VALPARAISO     CLOUDY    71  70  96 S5        29.96S
$$

LMZ740>746-241300-
SOUTHERN LAKE MICHIGAN

STATION/POSITION TIME  SKY/WX   TEMP WIND        PRES    VSBY
                                AIR  DIR/SP/G
                 (UTC)          (F)  (DEG/KT/KT) (MB)    (MI)
HARRISON CRIB    1100            72  180/ 13/ 14   N/A
BURNHAM HARBOR   1200            73  180/  6/ 10   N/A
CALUMET HARBOR   1100            72  170/  7/ 10 1012.5F
BURNS HARBOR     1104            72  180/  7/ 11 1013.9S
MICHIGAN CITY    1100            73  140/ 10/ 13   N/A
$$

ABBREVIATIONS USED IN REMARKS
   TC - TEMPERATURE IN CELSIUS
  WCI - WIND CHILL INDEX
   HX - HEAT INDEX
  VSB - VISIBILITY
$$




USA.gov is the U.S. government's official web portal to all federal, state and local government web resources and services.